Weather History for Cross City, FL

Change the Weather History Date:

Sunday, June 2, 2013

  Actual Average Record
Temperature  
Mean Temperature 81 °F 79 °F  
Max Temperature 90 °F 90 °F 96 °F (2002)
Min Temperature 72 °F 67 °F 64 °F (2007)
Degree Days  
Heating Degree Days 0 0  
Month to date heating degree days 0 0  
Since 1 June heating degree days 0 0  
Since 1 July heating degree days 1133 1306  
Cooling Degree Days 16 14  
Month to date cooling degree days 32 27  
Year to date cooling degree days 567 506  
Since 1 June cooling degree days 32 27  
Growing Degree Days 31 (Base 50)    
Moisture  
Dew Point 72 °F    
Average Humidity 78    
Maximum Humidity 100    
Minimum Humidity 59    
Precipitation  
Precipitation 0.00 in 0.10 in 3.59 in (2007)
Month to date precipitation 1.31 0.20  
Year to date precipitation 13.85 17.37  
Sea Level Pressure  
Sea Level Pressure 29.96 in    
Wind  
Wind Speed 4 mph (South)    
Max Wind Speed 13 mph    
Max Gust Speed 17 mph    
T = Trace of Precipitation, MM = Missing Value Source: NWS Daily Summary

Daily Weather History Graph

Daily Weather History Graph

Search for Another Location

Airport:

Trip Planner

Search our weather history database for the weather conditions in past years. The results will help you decide how hot, cold, wet, or windy it might be!

Date:

Astronomy

Jun. 02, 2013 Rise Set
Actual Time 6:32 AM EDT 8:28 PM EDT
Civil Twilight 6:05 AM EDT 8:55 PM EDT
Nautical Twilight 5:32 AM EDT 9:28 PM EDT
Astronomical Twilight 4:58 AM EDT 10:03 PM EDT
Moon 2:35 AM EDT (6/2) 3:19 PM EDT (6/2)
Length of Visible Light 14h 50m
Length of Day
13h 56m
Waning Crescent, 31% of the Moon is Illuminated
Jun 2
Waning Crescent
Jun 8
New
Jun 16
First Quarter
Jun 23
Full
Jun 30
Last Quarter

Hourly Weather History & Observations

Time (EDT) Temp. Heat Index Dew Point Humidity Pressure Visibility Wind Dir Wind Speed Gust Speed Precip Events Conditions
12:53 AM 75.9 °F - 71.1 °F 85% 30.03 in - ESE 4.6 mph - N/A   Unknown
1:53 AM 75.0 °F - 71.1 °F 87% 30.01 in - Calm Calm - N/A   Unknown
2:53 AM 73.9 °F - 71.1 °F 91% 29.98 in - Calm Calm - N/A   Unknown
3:53 AM 73.0 °F - 71.1 °F 93% 29.97 in - Calm Calm - N/A   Unknown
4:53 AM 73.0 °F - 71.1 °F 93% 29.96 in - Calm Calm - N/A   Unknown
5:53 AM 72.0 °F - 71.1 °F 97% 29.97 in - Calm Calm - N/A   Unknown
6:53 AM 72.0 °F - 71.1 °F 97% 29.98 in - Calm Calm - 0.01 in   Unknown
7:53 AM 75.0 °F - 72.0 °F 90% 29.98 in - Variable 3.5 mph - N/A   Unknown
8:53 AM 77.0 °F - 73.0 °F 88% 30.00 in - SE 3.5 mph - 0.01 in   Unknown
9:53 AM 79.0 °F - 73.0 °F 82% 29.99 in - SSE 5.8 mph - N/A   Unknown
10:53 AM 82.9 °F 88.8 °F 73.0 °F 72% 29.99 in - South 4.6 mph - N/A   Unknown
11:53 AM 84.9 °F 90.7 °F 72.0 °F 65% 29.98 in - South 5.8 mph - N/A   Unknown
12:53 PM 87.1 °F 93.6 °F 72.0 °F 61% 29.97 in - South 9.2 mph - N/A   Unknown
1:53 PM 88.0 °F 95.6 °F 73.0 °F 61% 29.96 in - Variable 4.6 mph - N/A   Unknown
2:53 PM 86.0 °F 93.0 °F 73.0 °F 65% 29.94 in - WSW 6.9 mph - N/A   Unknown
3:53 PM 88.0 °F 93.8 °F 71.1 °F 57% 29.92 in - SSW 9.2 mph - N/A   Unknown
4:53 PM 87.1 °F 93.6 °F 72.0 °F 61% 29.91 in - SSW 10.4 mph - N/A   Unknown
5:53 PM 86.0 °F 92.2 °F 72.0 °F 63% 29.89 in - WSW 8.1 mph - N/A   Unknown
6:53 PM 84.9 °F 90.1 °F 71.1 °F 63% 29.88 in - WSW 10.4 mph - N/A   Unknown
7:53 PM 82.0 °F 86.3 °F 71.1 °F 69% 29.90 in - SSW 6.9 mph - N/A   Unknown
8:53 PM 78.1 °F - 72.0 °F 81% 29.93 in - Calm Calm - N/A   Unknown
9:53 PM 75.9 °F - 72.0 °F 87% 29.96 in - Calm Calm - N/A   Unknown
10:53 PM 75.0 °F - 72.0 °F 90% 29.96 in - SSE 3.5 mph - N/A   Unknown
11:53 PM 73.9 °F - 71.1 °F 91% 29.95 in - Calm Calm - N/A   Unknown